N7LK Weather Reports


time (UTC)temp
C
wind
direction
speed
KPH
gust
KPH
rain 1hr
cm
rain 24hr
cm
rain mn
cm
humidity
%
barometer
mb
20260505050343 22 271 3.2 9.7 0.00 0.00 0.00 40 1010.1
20260505041347 23 234 3.2 9.7 0.00 0.00 0.00 40 1009.7
20260505040328 23 248 3.2 14.5 0.00 0.00 0.00 41 1009.8
20260505035329 23 229 3.2 14.5 0.00 0.00 0.00 41 1009.8
20260505034328 23 243 3.2 9.7 0.00 0.00 0.00 41 1009.6
20260505033325 23 215 4.8 14.5 0.00 0.00 0.00 42 1009.1
20260505032327 23 239 4.8 14.5 0.00 0.00 0.00 42 1009.0
20260505031327 23 221 3.2 12.9 0.00 0.00 0.00 43 1008.9
20260505030327 23 251 6.4 17.7 0.00 0.00 0.00 42 1008.7
20260505025345 23 261 1.6 9.7 0.00 0.00 0.00 42 1008.7
20260505024344 23 238 6.4 14.5 0.00 0.00 0.00 42 1008.7
20260505023327 23 266 6.4 14.5 0.00 0.00 0.00 42 1008.8
20260505022329 23 259 9.7 16.1 0.00 0.00 0.00 41 1008.8
20260505021328 23 294 11.3 14.5 0.00 0.00 0.00 41 1008.7
20260505020328 23 279 4.8 14.5 0.00 0.00 0.00 40 1008.7
20260505015347 23 219 1.6 14.5 0.00 0.00 0.00 40 1008.6
20260505014352 23 271 8.0 12.9 0.00 0.00 0.00 40 1008.6
20260505013328 24 238 6.4 12.9 0.00 0.00 0.00 39 1008.6
20260505012347 24 268 1.6 14.5 0.00 0.00 0.00 38 1008.5
20260505011327 24 313 6.4 12.9 0.00 0.00 0.00 37 1008.5
20260505010327 24 261 0.0 11.3 0.00 0.00 0.00 36 1008.5
20260505005329 25 279 1.6 12.9 0.00 0.00 0.00 36 1008.5
20260505004328 25 267 4.8 11.3 0.00 0.00 0.00 35 1008.7
20260505003327 25 258 1.6 12.9 0.00 0.00 0.00 36 1008.7
20260505002346 25 306 3.2 12.9 0.00 0.00 0.00 36 1008.8
20260505001328 25 261 4.8 12.9 0.00 0.00 0.00 37 1008.8
20260505000351 25 277 4.8 12.9 0.00 0.00 0.00 37 1009.0
20260504235348 25 350 3.2 8.0 0.00 0.00 0.00 36 1008.9
20260504234345 25 256 0.0 6.4 0.00 0.00 0.00 37 1009.0
20260504233404 25 244 4.8 11.3 0.00 0.00 0.00 36 1009.0
20260504232339 25 265 3.2 11.3 0.00 0.00 0.00 37 1009.1
20260504231340 25 310 0.0 9.7 0.00 0.00 0.00 37 1009.1
20260504230339 25 32 0.0 6.4 0.00 0.00 0.00 37 1009.1
20260504225341 25 277 3.2 8.0 0.00 0.00 0.00 37 1009.3
20260504224401 25 257 0.0 6.4 0.00 0.00 0.00 38 1009.1
20260504223338 25 319 0.0 8.0 0.00 0.00 0.00 38 1009.3
20260504222341 25 329 1.6 12.9 0.00 0.00 0.00 38 1009.4
20260504221400 25 296 8.0 19.3 0.00 0.00 0.00 39 1009.6
20260504220338 24 306 4.8 8.0 0.00 0.00 0.00 39 1009.7
20260504215336 24 313 8.0 16.1 0.00 0.00 0.00 40 1009.9
20260504214332 24 263 3.2 12.9 0.00 0.00 0.00 40 1010.0
20260504213333 23 327 1.6 8.0 0.00 0.00 0.00 41 1010.3
20260504212333 23 166 0.0 4.8 0.00 0.00 0.00 41 1010.3
20260504211332 23 253 3.2 11.3 0.00 0.00 0.00 41 1010.5
20260504210330 23 272 1.6 16.1 0.00 0.00 0.00 41 1010.8
20260504205330 23 273 8.0 17.7 0.00 0.00 0.00 39 1010.9
20260504204332 23 261 6.4 17.7 0.00 0.00 0.00 38 1010.8
20260504203330 24 329 8.0 16.1 0.00 0.00 0.00 38 1010.9
20260504202350 24 270 6.4 19.3 0.00 0.00 0.00 39 1010.9
20260504201327 23 311 6.4 16.1 0.00 0.00 0.00 41 1010.9
20260504200407 23 269 9.7 16.1 0.00 0.00 0.00 40 1010.9
20260504195328 23 225 3.2 12.9 0.00 0.00 0.00 41 1010.7
20260504194328 23 234 1.6 9.7 0.00 0.00 0.00 41 1010.5
20260504193327 23 320 0.0 8.0 0.00 0.00 0.00 42 1010.7
20260504192326 23 182 1.6 9.7 0.00 0.00 0.00 42 1010.6
20260504191329 23 231 4.8 16.1 0.00 0.00 0.00 43 1011.1
20260504190333 23 261 4.8 12.9 0.00 0.00 0.00 43 1011.0
20260504185401 23 286 6.4 12.9 0.00 0.00 0.00 43 1010.8
20260504184328 23 319 1.6 9.7 0.00 0.00 0.00 44 1010.7
20260504183339 23 246 1.6 6.4 0.00 0.00 0.00 44 1010.9
20260504182348 22 230 1.6 9.7 0.00 0.00 0.00 44 1010.8
20260504181336 22 252 3.2 12.9 0.00 0.00 0.00 46 1011.3
20260504180341 22 334 3.2 16.1 0.00 0.00 0.00 46 1011.5
20260504175333 22 290 8.0 16.1 0.00 0.00 0.00 47 1011.6
20260504174340 22 279 8.0 11.3 0.00 0.00 0.00 48 1011.3
20260504173328 22 273 1.6 4.8 0.00 0.00 0.00 48 1010.5
20260504172337 22 188 1.6 8.0 0.00 0.00 0.00 49 1010.4
20260504171328 21 286 6.4 12.9 0.00 0.00 0.00 49 1010.9
20260504170335 21 217 6.4 17.7 0.00 0.00 0.00 50 1011.0
20260504160345 21 321 8.0 14.5 0.00 0.00 0.00 49 1010.9
20260504150344 22 234 0.0 6.4 0.00 0.00 0.00 41 1010.5
20260504140327 22 331 0.0 0.0 0.00 0.00 0.00 43 1009.6
20260504130339 22 251 0.0 0.0 0.00 0.00 0.00 40 1009.4
20260504110331 23 355 0.0 0.0 0.00 0.00 0.00 38 1008.5
20260504100333 23 320 1.6 4.8 0.00 0.00 0.00 36 1008.6
20260504081330 25 304 0.0 1.6 0.00 0.00 0.00 33 1008.0
20260504080328 25 147 4.8 12.9 0.00 0.00 0.00 33 1007.9
20260504070341 25 152 0.0 0.0 0.00 0.00 0.00 28 1008.2